sat.trackr.live / text

‹ back to catalog

STARLINK-32087

NORAD 59702 · 2024-086W

PAYLOAD ACTIVE UNKNOWN

§ Identity

Operator
Country
US
Launch date
2024-05-08
Launch site
AFETR
Launch vehicle
Mass (kg)
RCS (m²)

Purposes: comms

External: N2YO · Heavens-Above · Gunter

§ Orbital elements

Epoch: 2026-09-20T20:55:13.633248Z

Period
94.27 min
Inclination
43.0077°
Eccentricity
0.0001808
Mean motion
15.27581511 rev/d
Perigee alt
481.8 km
Apogee alt
484.3 km
Semi-major
6,861.2 km
B*
6.4681e-5
RAAN
37.5270°
Arg perigee
275.5421°
Mean anomaly
84.5225°
Rev number
13,396

§ Raw data

STARLINK-320871 59702U 24086W   26263.87168557  .00001518  00000+0  64681-4 0  99922 59702  43.0077  37.5270 0001808 275.5421  84.5225 15.27581511133967

JSON: /api/v1/satellites/59702 · /tle

For live sub-satellite position, see the globe view (requires WebGL).

§ Visibility from observer

Set your observer location to see the next 7 days of passes ≥ 10°. The values pass through the URL so the page stays shareable.

No JS? Fill the form by hand. The geolocation button needs JavaScript.